SWA489 PHNL-PHLI

Flight info

Callsign SWA489
Flight time N/A
Altitude 12000
Route KEOLA3 LIH
Aircraft B38M/M-SDE1FGHILORVWXY/HB1

Departure

Time N/A
Airport Daniel K. Inouye International Airport (PHNL)

Arrival

Time 2026-05-01 07:29
Airport Lihue Airport (PHLI)
Time Latitude Longitude Altitude Speed Heading
2026-05-01 07:23 21.75326 -159.25457 2844 ft 153 kts 334°
2026-05-01 07:23 21.77118 -159.26718 2975 ft 162 kts 335°
2026-05-01 07:24 21.78085 -159.27387 3048 ft 167 kts 335°
2026-05-01 07:24 21.79063 -159.28062 3042 ft 168 kts 335°
2026-05-01 07:24 21.80051 -159.28738 3010 ft 169 kts 334°
2026-05-01 07:24 21.81047 -159.29414 3008 ft 171 kts 335°
2026-05-01 07:25 21.82046 -159.30097 2834 ft 167 kts 335°
2026-05-01 07:25 21.83028 -159.30766 2650 ft 168 kts 335°
2026-05-01 07:25 21.84000 -159.31429 2447 ft 166 kts 335°
2026-05-01 07:25 21.84978 -159.32096 2247 ft 166 kts 334°
2026-05-01 07:26 21.85930 -159.32753 2105 ft 155 kts 336°
2026-05-01 07:26 21.86834 -159.33315 1900 ft 145 kts 346°
2026-05-01 07:26 21.87776 -159.33566 1731 ft 135 kts
2026-05-01 07:26 21.88701 -159.33598 1577 ft 133 kts
2026-05-01 07:27 21.89630 -159.33586 1419 ft 135 kts
2026-05-01 07:27 21.90560 -159.33590 1263 ft 132 kts
2026-05-01 07:27 21.91451 -159.33594 1009 ft 128 kts
2026-05-01 07:27 21.92383 -159.33642 762 ft 139 kts
2026-05-01 07:28 21.93356 -159.33673 660 ft 142 kts
2026-05-01 07:28 21.94304 -159.33626 493 ft 135 kts
2026-05-01 07:28 21.95246 -159.33600 388 ft 135 kts
2026-05-01 07:28 21.96157 -159.33606 212 ft 126 kts
2026-05-01 07:29 21.97023 -159.33598 100 ft 117 kts
2026-05-01 07:29 21.97623 -159.33591 103 ft 62 kts
2026-05-01 07:29 21.97945 -159.33597 106 ft 37 kts
2026-05-01 07:29 21.98117 -159.33600 105 ft 18 kts 340°
2026-05-01 07:30 21.98148 -159.33678 105 ft 6 kts 241°
2026-05-01 07:30 21.98110 -159.33703 107 ft 7 kts 190°
2026-05-01 07:30 21.98053 -159.33709 107 ft 9 kts 183°
2026-05-01 07:30 21.97977 -159.33711 107 ft 11 kts 178°
2026-05-01 07:31 21.97941 -159.33719 105 ft 1 kts 249°
2026-05-01 07:31 21.97938 -159.33967 119 ft 19 kts 270°
2026-05-01 07:32 21.97940 -159.34247 127 ft 15 kts 271°
2026-05-01 07:32 21.97931 -159.34353 131 ft 14 kts 243°
2026-05-01 07:33 21.97807 -159.34501 140 ft 11 kts 225°
2026-05-01 07:33 21.97756 -159.34556 144 ft 10 kts 224°
2026-05-01 07:33 21.97657 -159.34663 148 ft 10 kts 225°
2026-05-01 07:34 21.97612 -159.34712 152 ft 8 kts 225°
2026-05-01 07:34 21.97552 -159.34823 157 ft 11 kts 291°
2026-05-01 07:34 21.97596 -159.34896 156 ft 11 kts 284°
2026-05-01 07:35 21.97586 -159.34948 156 ft 6 kts 266°
2026-05-01 07:35 21.97608 -159.34981 156 ft 5 kts 315°
2026-05-01 07:35 21.97620 -159.34994 156 ft 0 kts 315°
2026-05-01 07:35 21.97621 -159.34995 156 ft 0 kts 315°